Regional Weather Roundup
Issued by NWS Cleveland, OH

Home | Current Version | Previous Version | Graphics & Text | Print | Product List | Glossary On
Versions: 1 2 3 4 5 6 7 8 9 10 11 12 13 14 15 16 17 18 19 20 21 22 23 24 25 26 27 28 29 30 31 32 33 34 35 36 37 38 39 40 41 42 43 44 45 46 47 48 49 50
000
ASUS41 KCLE 111510
RWRCLE
OHIO REGIONAL WEATHER ROUNDUP
NATIONAL WEATHER SERVICE WILMINGTON, OH
1000 AM EST THU FEB 11 2016

NOTE: "FAIR" INDICATES FEW OR NO CLOUDS BELOW 12,000 FEET WITH NO
SIGNIFICANT WEATHER AND/OR OBSTRUCTIONS TO VISIBILITY.

OHZ001>008-015>018-024>027-034-035-043-044-111600-
   NORTHWEST OHIO

CITY           SKY/WX    TMP DP  RH WIND       PRES   REMARKS
DEFIANCE       CLOUDY    18   7  62 NW6       30.24R WCI  10
FINDLAY        PTSUNNY   18  12  77 W9        30.22R WCI   7
TOLEDO EXPRESS FAIR      17   5  59 W15       30.22R WCI   2
TOLEDO EXEC    FAIR      18   4  54 W16G23    30.22R WCI   3
LIMA           CLOUDY    16  11  80 W8        30.22R WCI   5
$$

OHZ009>014-019>023-028>033-038-089-111600-
   NORTHEAST OHIO

CITY           SKY/WX    TMP DP  RH WIND       PRES   REMARKS
CLE-HOPKINS    CLOUDY    16   1  51 NW17      30.18R WCI   0
CLE-LAKEFRONT  CLOUDY    19   6  57 NW21G30   30.16R WCI   3
CUY CO. ARPT   CLOUDY    18   3  53 NW16G25   30.14R WCI   3
LORAIN-ELYRIA  LGT SNOW  13   7  77 W13       30.18R VSB 1   WCI  -2
ASHTABULA      CLOUDY    14   3  61 NW20      30.10R WCI  -3
AKRON-CANTON   LGT SNOW  12   7  80 W10G21    30.13R WCI  -1
WOOSTER        CLOUDY    13   4  67 W16       30.16R WCI  -3
MANSFIELD      PTSUNNY   13   6  74 W8        30.16R WCI   2
YOUNGSTOWN     FLURRIES  14   1  56 W18G28    30.08R WCI  -3
$$

OHZ042-051>053-060>062-070>072-077>081-111600-
  SOUTHWEST OHIO

CITY           SKY/WX    TMP DP  RH WIND       PRES   REMARKS
CINC-COVINGTON FAIR      17   6  62 NW7       30.27R WCI   8
CINC-LUNKEN    FAIR      19   7  59 NW5       30.32R WCI  12
HAMILTON       FAIR      17   6  62 W7        30.31R WCI   8
DAYTON         PTSUNNY   15   7  70 W10       30.25R WCI   2
WRIGHT-PAT AFB CLOUDY    14   7  74 VRB3      30.26R
DAYTON GENERAL FAIR      15   6  67 W3        30.25R
WILMINGTON     FAIR      14   7  73 W7        30.24R WCI   4
$$

OHZ036-037-039>041-045>050-054>059-063>069-073>076-082>088-111600-
  CENTRAL AND SOUTHEAST OHIO

CITY           SKY/WX    TMP DP  RH WIND       PRES   REMARKS
COLUMBUS       CLOUDY    15   6  67 W6        30.24R WCI   6
OSU AIRPORT    CLOUDY    15   9  76 W5        30.23R WCI   8
BOLTON FIELD   CLOUDY    14   9  79 NW6       30.24R WCI   5
RICKENBACK AFB CLOUDY    11   5  78 CALM      30.26R
NEWARK         PTSUNNY   14   6  70 MISG      30.23R
MARION         CLOUDY    17   7  64 W10       30.21R WCI   5
LANCASTER      CLOUDY    12   5  73 W7        30.25R WCI   1
ZANESVILLE     CLOUDY    15   6  67 W7        30.22R WCI   5
NEW PHILLY     CLOUDY    14   5  67 W9        30.19R WCI   2
$$



USA.gov is the U.S. government's official web portal to all federal, state and local government web resources and services.